Location: Newark
(37.8444°N, 127.0614°E)
Time: 20:58:25
(UTC+00:00)

XW-2F - Pass Details

Date: 28 January 2020
Orbit: 502 x 523 km, 97.5° (Epoch: 27 February)

Event Time Altitude Azimuth Distance (km) Brightness Sun altitude
Rises 21:06:58 0° 21° (NNE) 2,605 ? -18.3°
Reaches altitude 10° 21:09:12 10° 31° (NNE) 1,715 ? -17.9°
Maximum altitude 21:12:35 34° 98° (E) 841 ? -17.2°
Drops below altitude 10° 21:15:58 10° 165° (SSE) 1,704 ? -16.6°
Sets 21:18:10 0° 174° (S) 2,585 ? -16.1°
